OK,50,63,802,50,2014-10-01T01:40:00,0,28072572,178793
OK,50,63,802,50,2014-10-01T01:45:00,0,28073019,178793
OK,50,63,802,50,2014-10-01T01:50:00,0,28073468,178793
OK,50,63,802,50,2014-10-01T01:55:00,0,28073786,178793
OK,50,63,802,50,2014-10-01T02:00:00,0,28074234,178793
OK,50,63,802,50,2014-10-01T02:05:00,0,28074677,178793
OK,49,64,802,49,2014-10-01T02:10:00,1,28075123,178793
OK,49,64,802,49,2014-10-01T02:20:00,0,28075572,178793
OK,49,64,802,49,2014-10-01T02:25:00,0,28076404,178793
OK,49,64,802,49,2014-10-01T02:30:00,0,28076853,178793
OK,49,64,802,49,2014-10-01T02:40:00,0,28077302,178793
OK,49,64,802,49,2014-10-01T02:45:00,0,28078154,178793
OK,62,50,802,62,2014-10-01T02:55:00,1,28078602,178793
OK,62,50,802,62,2014-10-01T03:00:00,0,28079048,178793
OK,62,50,802,62,2014-10-01T03:05:00,0,28079494,178793
OK,62,50,802,62,2014-10-01T03:10:00,0,28079939,178793
OK,62,50,802,62,2014-10-01T03:15:00,0,28080722,178793
OK,62,50,802,62,2014-10-01T03:25:00,0,28081171,178793
OK,62,50,802,62,2014-10-01T03:30:00,0,28081619,178793
OK,62,50,802,62,2014-10-01T03:35:00,0,28082067,178793
OK,62,50,802,62,2014-10-01T03:40:00,0,28082515,178793
OK,58,54,802,58,2014-10-01T03:50:00,1,28083381,178793
OK,58,54,802,58,2014-10-01T03:55:00,0,28083830,178793
OK,58,54,802,58,2014-10-01T04:00:00,0,28084279,178793
OK,46,68,802,46,2014-10-01T04:05:00,1,28084716,178793
OK,46,68,802,46,2014-10-01T04:10:00,0,28085145,178793
OK,46,68,802,46,2014-10-01T04:15:00,0,28085594,178793
OK,46,68,802,46,2014-10-01T04:20:00,0,28086039,178793
OK,46,68,802,46,2014-10-01T04:25:00,0,28086488,178793
OK,46,68,802,46,2014-10-01T04:30:00,0,28086930,178793
OK,106,29,802,106,2014-10-01T04:35:00,2,28087378,178793
OK,106,29,802,106,2014-10-01T04:40:00,6,28087824,178793
OK,91,34,802,91,2014-10-01T04:50:00,5,28088697,178793
OK,80,39,802,80,2014-10-01T05:00:00,1,28089576,178793
OK,109,28,802,109,2014-10-01T05:05:00,1,28090025,178793
OK,105,30,802,105,2014-10-01T05:15:00,3,28090818,178793
OK,90,35,802,90,2014-10-01T05:20:00,2,28091267,178793
OK,60,52,802,60,2014-10-01T05:30:00,4,28092133,178793
OK,62,50,802,62,2014-10-01T05:35:00,5,28092581,178793
OK,68,46,802,68,2014-10-01T05:40:00,6,28093455,178793
OK,80,39,802,80,2014-10-01T05:50:00,8,28093898,178793
OK,87,36,802,87,2014-10-01T05:55:00,9,28094754,178793
OK,89,35,802,89,2014-10-01T06:00:00,5,28095202,178793
OK,57,55,802,57,2014-10-01T06:10:00,4,28095650,178793
OK,113,27,802,113,2014-10-01T06:20:00,1,28096512,178793
OK,113,27,802,113,2014-10-01T06:25:00,0,28097395,178793
OK,96,32,802,96,2014-10-01T06:35:00,1,28097844,178793
OK,96,32,802,96,2014-10-01T06:40:00,0,28098293,178793
OK,74,42,802,74,2014-10-01T06:45:00,3,28098729,178793
OK,66,47,802,66,2014-10-01T06:50:00,6,28099174,178793
OK,79,39,802,79,2014-10-01T07:00:00,4,28099965,178793
OK,69,45,802,69,2014-10-01T07:05:00,6,28100721,178793
OK,77,41,802,77,2014-10-01T07:10:00,8,28101099,178793
OK,63,50,802,63,2014-10-01T07:20:00,2,28101541,178793
OK,62,50,802,62,2014-10-01T07:25:00,3,28101986,178793
OK,111,28,802,111,2014-10-01T07:30:00,3,28102426,178793
OK,106,29,802,106,2014-10-01T07:35:00,5,28102875,178793
OK,104,30,802,104,2014-10-01T07:40:00,3,28103301,178793
OK,49,64,802,49,2014-10-01T07:45:00,1,28103749,178793
OK,52,60,802,52,2014-10-01T07:50:00,1,28104193,178793
OK,52,60,802,52,2014-10-01T07:55:00,1,28104638,178793
OK,75,42,802,75,2014-10-01T08:00:00,1,28105077,178793
OK,84,37,802,84,2014-10-01T08:05:00,2,28105521,178793
OK,94,33,802,94,2014-10-01T08:10:00,1,28105965,178793
OK,92,34,802,92,2014-10-01T08:15:00,2,28106815,178793
OK,92,34,802,92,2014-10-01T08:20:00,0,28107240,178793
OK,100,31,802,100,2014-10-01T08:25:00,2,28107689,178793
OK,99,31,802,99,2014-10-01T08:30:00,5,28108130,178793
OK,64,49,802,64,2014-10-01T08:40:00,1,28108577,178793
OK,84,37,802,84,2014-10-01T08:45:00,3,28109454,178793
OK,78,40,802,78,2014-10-01T08:50:00,6,28109805,178793
OK,74,42,802,74,2014-10-01T08:55:00,7,28110246,178793
OK,71,44,802,71,2014-10-01T09:00:00,6,28110675,178793
OK,95,33,802,95,2014-10-01T09:05:00,5,28111118,178793
OK,88,35,802,88,2014-10-01T09:10:00,4,28111552,178793
OK,64,49,802,64,2014-10-01T09:15:00,4,28111996,178793
OK,45,70,802,45,2014-10-01T09:20:00,2,28112343,178793
OK,117,26,802,117,2014-10-01T09:25:00,3,28112786,178793
OK,120,26,802,120,2014-10-01T09:30:00,2,28113217,178793
OK,73,43,802,73,2014-10-01T09:35:00,2,28113659,178793
OK,73,43,802,73,2014-10-01T09:40:00,4,28114093,178793
OK,76,41,802,76,2014-10-01T09:45:00,2,28114540,178793
OK,85,37,802,85,2014-10-01T09:50:00,4,28114896,178793
OK,108,29,802,108,2014-10-01T10:00:00,5,28115343,178793
OK,122,25,802,122,2014-10-01T10:10:00,1,28116204,178793
OK,72,43,802,72,2014-10-01T10:15:00,7,28117061,178793
OK,94,33,802,94,2014-10-01T10:20:00,5,28117492,178793
OK,90,35,802,90,2014-10-01T10:25:00,3,28117935,178793
OK,83,38,802,83,2014-10-01T10:30:00,3,28118380,178793
OK,76,41,802,76,2014-10-01T10:35:00,5,28118828,178793
OK,67,47,802,67,2014-10-01T10:40:00,6,28119272,178793
OK,94,33,802,94,2014-10-01T10:45:00,5,28119719,178793
OK,100,31,802,100,2014-10-01T10:50:00,5,28120167,178793
OK,97,32,802,97,2014-10-01T10:55:00,3,28120616,178793
OK,80,39,802,80,2014-10-01T11:00:00,3,28121006,178793
OK,80,39,802,80,2014-10-01T11:05:00,5,28121448,178793
OK,82,38,802,82,2014-10-01T11:10:00,6,28121887,178793
OK,82,38,802,82,2014-10-01T11:15:00,4,28122335,178793
OK,85,37,802,85,2014-10-01T11:20:00,1,28122777,178793
OK,85,37,802,85,2014-10-01T11:25:00,4,28123225,178793
OK,86,36,802,86,2014-10-01T11:30:00,9,28123660,178793
OK,101,31,802,101,2014-10-01T11:40:00,5,28124106,178793
OK,105,30,802,105,2014-10-01T11:45:00,7,28124957,178793
OK,88,35,802,88,2014-10-01T11:50:00,9,28125389,178793
OK,72,43,802,72,2014-10-01T11:55:00,7,28125835,178793
OK,79,39,802,79,2014-10-01T12:00:00,2,28126189,178793
OK,94,33,802,94,2014-10-01T12:05:00,3,28126636,178793
OK,110,28,802,110,2014-10-01T12:10:00,2,28127085,178793
OK,101,31,802,101,2014-10-01T12:15:00,3,28127534,178793
OK,108,29,802,108,2014-10-01T12:20:00,4,28127965,178793
OK,136,23,802,136,2014-10-01T12:25:00,4,28128411,178793
OK,108,29,802,108,2014-10-01T12:30:00,4,28128849,178793
OK,81,38,802,81,2014-10-01T12:35:00,5,28129295,178793
OK,89,35,802,89,2014-10-01T12:40:00,7,28129730,178793
OK,88,35,802,88,2014-10-01T12:45:00,8,28130178,178793
OK,93,33,802,93,2014-10-01T12:50:00,6,28130608,178793
OK,58,54,802,58,2014-10-01T12:55:00,4,28131055,178793
OK,84,37,802,84,2014-10-01T13:00:00,5,28131494,178793
OK,91,34,802,91,2014-10-01T13:05:00,6,28131941,178793
OK,81,38,802,81,2014-10-01T13:10:00,7,28132380,178793
OK,66,47,802,66,2014-10-01T13:15:00,5,28132826,178793
OK,82,38,802,82,2014-10-01T13:20:00,5,28133264,178793
OK,82,38,802,82,2014-10-01T13:25:00,9,28133713,178793
OK,78,40,802,78,2014-10-01T13:30:00,10,28134152,178793
OK,105,30,802,105,2014-10-01T13:35:00,10,28134601,178793
OK,100,31,802,100,2014-10-01T13:40:00,4,28135021,178793
OK,90,35,802,90,2014-10-01T13:45:00,7,28135469,178793
OK,92,34,802,92,2014-10-01T13:50:00,9,28135906,178793
OK,95,33,802,95,2014-10-01T13:55:00,11,28136355,178793
OK,99,31,802,99,2014-10-01T14:00:00,10,28136795,178793
OK,96,32,802,96,2014-10-01T14:05:00,10,28137244,178793
OK,96,32,802,96,2014-10-01T14:10:00,12,28137679,178793
OK,97,32,802,97,2014-10-01T14:15:00,8,28138127,178793
OK,97,32,802,97,2014-10-01T14:20:00,5,28138556,178793
OK,91,34,802,91,2014-10-01T14:25:00,6,28139004,178793
OK,79,39,802,79,2014-10-01T14:30:00,11,28139416,178793
OK,97,32,802,97,2014-10-01T14:35:00,8,28139864,178793
OK,99,31,802,99,2014-10-01T14:40:00,5,28140307,178793
OK,80,39,802,80,2014-10-01T14:45:00,3,28140755,178793
OK,102,30,802,102,2014-10-01T14:50:00,5,28141183,178793
OK,102,30,802,102,2014-10-01T14:55:00,5,28141630,178793
OK,97,32,802,97,2014-10-01T15:00:00,3,28142060,178793
OK,95,33,802,95,2014-10-01T15:05:00,3,28142507,178793
OK,97,32,802,97,2014-10-01T15:10:00,5,28142939,178793
OK,101,31,802,101,2014-10-01T15:15:00,10,28143383,178793
OK,97,32,802,97,2014-10-01T15:20:00,10,28143831,178793
OK,91,34,802,91,2014-10-01T15:25:00,12,28144280,178793
OK,96,32,802,96,2014-10-01T15:30:00,16,28144708,178793
OK,103,30,802,103,2014-10-01T15:35:00,16,28145115,178793
OK,107,29,802,107,2014-10-01T15:40:00,11,28145564,178793
OK,90,35,802,90,2014-10-01T15:45:00,13,28146013,178793
OK,92,34,802,92,2014-10-01T15:55:00,5,28146462,178793
OK,92,34,802,92,2014-10-01T16:00:00,7,28147315,178793
OK,93,33,802,93,2014-10-01T16:05:00,8,28147763,178793
OK,81,38,802,81,2014-10-01T16:10:00,4,28148167,178793
OK,101,31,802,101,2014-10-01T16:15:00,8,28148613,178793
OK,94,33,802,94,2014-10-01T16:20:00,9,28149054,178793
OK,80,39,802,80,2014-10-01T16:25:00,5,28149501,178793
OK,94,33,802,94,2014-10-01T16:30:00,6,28149930,178793
OK,87,36,802,87,2014-10-01T16:35:00,0,28150376,178793
OK,117,26,802,117,2014-10-01T16:40:00,3,28150799,178793
OK,101,31,802,101,2014-10-01T16:45:00,6,28151243,178793
OK,103,30,802,103,2014-10-01T16:55:00,9,28151692,178793
OK,103,30,802,103,2014-10-01T17:00:00,5,28152141,178793
OK,76,41,802,76,2014-10-01T17:05:00,4,28152587,178793
OK,75,42,802,75,2014-10-01T17:10:00,2,28153034,178793
OK,81,38,802,81,2014-10-01T17:20:00,4,28153483,178793
OK,70,45,802,70,2014-10-01T17:25:00,5,28154342,178793
OK,101,31,802,101,2014-10-01T17:30:00,3,28154785,178793
OK,87,36,802,87,2014-10-01T17:40:00,2,28155232,178793
OK,90,35,802,90,2014-10-01T17:45:00,1,28156099,178793
OK,90,35,802,90,2014-10-01T17:50:00,0,28156548,178793
OK,75,42,802,75,2014-10-01T17:55:00,1,28156989,178793
OK,75,42,802,75,2014-10-01T18:00:00,1,28157419,178793
OK,89,35,802,89,2014-10-01T18:05:00,1,28157864,178793
OK,102,30,802,102,2014-10-01T18:10:00,2,28158309,178793
OK,115,27,802,115,2014-10-01T18:15:00,1,28158755,178793
OK,102,30,802,102,2014-10-01T18:20:00,5,28159200,178793
OK,87,36,802,87,2014-10-01T18:25:00,3,28159536,178793
OK,101,31,802,101,2014-10-01T18:30:00,4,28159984,178793
OK,91,34,802,91,2014-10-01T18:35:00,1,28160433,178793
OK,91,34,802,91,2014-10-01T18:40:00,0,28160874,178793
OK,91,34,802,91,2014-10-01T18:45:00,0,28161320,178793
OK,62,50,802,62,2014-10-01T18:50:00,1,28161738,178793
OK,94,33,802,94,2014-10-01T19:00:00,4,28162186,178793
OK,108,29,802,108,2014-10-01T19:05:00,2,28163020,178793
OK,95,33,802,95,2014-10-01T19:10:00,2,28163467,178793
OK,95,33,802,95,2014-10-01T19:15:00,3,28163916,178793
OK,90,35,802,90,2014-10-01T19:20:00,7,28164349,178793
OK,93,33,802,93,2014-10-01T19:25:00,0,28164796,178793
OK,66,47,802,66,2014-10-01T19:30:00,2,28165226,178793
OK,76,41,802,76,2014-10-01T19:35:00,3,28165669,178793
OK,76,41,802,76,2014-10-01T19:40:00,8,28166110,178793
OK,84,37,802,84,2014-10-01T19:45:00,10,28166472,178793
OK,86,36,802,86,2014-10-01T19:50:00,7,28166921,178793
OK,57,55,802,57,2014-10-01T19:55:00,1,28167350,178793
OK,90,35,802,90,2014-10-01T20:00:00,3,28167784,178793
OK,90,35,802,90,2014-10-01T20:05:00,3,28168232,178793
OK,103,30,802,103,2014-10-01T20:10:00,5,28168677,178793
OK,91,34,802,91,2014-10-01T20:15:00,5,28169126,178793
OK,61,51,802,61,2014-10-01T20:20:00,1,28169574,178793
OK,92,34,802,92,2014-10-01T20:25:00,6,28170000,178793
OK,98,32,802,98,2014-10-01T20:30:00,6,28170445,178793
OK,112,28,802,112,2014-10-01T20:35:00,2,28170893,178793
OK,113,27,802,113,2014-10-01T20:40:00,0,28171330,178793
OK,83,38,802,83,2014-10-01T20:45:00,3,28171776,178793
OK,100,31,802,100,2014-10-01T20:50:00,2,28172224,178793
OK,117,26,802,117,2014-10-01T20:55:00,0,28172670,178793
OK,117,26,802,117,2014-10-01T21:00:00,0,28173116,178793
OK,113,27,802,113,2014-10-01T21:05:00,0,28173565,178793
OK,81,38,802,81,2014-10-01T21:10:00,1,28174006,178793
OK,109,28,802,109,2014-10-01T21:15:00,1,28174455,178793
OK,109,28,802,109,2014-10-01T21:20:00,1,28174881,178793
OK,81,38,802,81,2014-10-01T21:25:00,0,28175277,178793
OK,81,38,802,81,2014-10-01T21:30:00,0,28175726,178793
OK,107,29,802,107,2014-10-01T21:35:00,1,28176175,178793
OK,60,52,802,60,2014-10-01T21:45:00,0,28176624,178793
OK,55,57,802,55,2014-10-01T21:50:00,1,28177420,178793
OK,55,57,802,55,2014-10-01T21:55:00,1,28177866,178793
OK,55,57,802,55,2014-10-01T22:00:00,0,28178315,178793
OK,55,57,802,55,2014-10-01T22:05:00,0,28178762,178793
OK,69,45,802,69,2014-10-01T22:10:00,1,28179198,178793
OK,95,33,802,95,2014-10-01T22:15:00,2,28179639,178793
OK,115,27,802,115,2014-10-01T22:20:00,1,28180086,178793
OK,115,27,802,115,2014-10-01T22:25:00,0,28180485,178793
OK,115,27,802,115,2014-10-01T22:30:00,0,28180933,178793
OK,115,27,802,115,2014-10-01T22:35:00,0,28181357,178793
OK,115,27,802,115,2014-10-01T22:40:00,0,28181805,178793
OK,115,27,802,115,2014-10-01T22:45:00,0,28182252,178793
OK,115,27,802,115,2014-10-01T22:50:00,0,28182701,178793
OK,115,27,802,115,2014-10-01T22:55:00,0,28183118,178793
OK,115,27,802,115,2014-10-01T23:00:00,0,28183551,178793
OK,51,61,802,51,2014-10-01T23:05:00,0,28183996,178793
OK,52,60,802,52,2014-10-01T23:10:00,1,28184445,178793
OK,52,60,802,52,2014-10-01T23:15:00,0,28184880,178793
OK,52,60,802,52,2014-10-01T23:20:00,0,28185328,178793
OK,52,60,802,52,2014-10-01T23:25:00,0,28185759,178793
OK,52,60,802,52,2014-10-01T23:30:00,0,28186151,178793
OK,52,60,802,52,2014-10-01T23:40:00,0,28186998,178793
OK,52,60,802,52,2014-10-01T23:45:00,0,28187440,178793
OK,52,60,802,52,2014-10-01T23:50:00,0,28187889,178793
OK,52,60,802,52,2014-10-01T23:55:00,0,28188330,178793
OK,52,60,802,52,2014-10-02T00:00:00,0,28188766,178793
OK,52,60,802,52,2014-10-02T00:05:00,0,28189215,178793
OK,52,60,802,52,2014-10-02T00:10:00,0,28189640,178793
OK,52,60,802,52,2014-10-02T00:15:00,0,28190086,178793
OK,52,60,802,52,2014-10-02T00:20:00,0,28190442,178793
OK,52,60,802,52,2014-10-02T00:25:00,0,28190888,178793
OK,52,60,802,52,2014-10-02T00:30:00,0,28191337,178793
OK,52,60,802,52,2014-10-02T00:35:00,0,28191648,178793
OK,52,60,802,52,2014-10-02T00:40:00,0,28192092,178793
OK,52,60,802,52,2014-10-02T00:45:00,0,28192526,178793
OK,52,60,802,52,2014-10-02T00:50:00,0,28192969,178793
OK,52,60,802,52,2014-10-02T00:55:00,0,28193336,178793
OK,52,60,802,52,2014-10-02T01:00:00,0,28193785,178793
OK,52,60,802,52,2014-10-02T01:05:00,0,28194234,178793
OK,52,60,802,52,2014-10-02T01:15:00,0,28194683,178793
OK,52,60,802,52,2014-10-02T01:20:00,0,28195368,178793
OK,52,60,802,52,2014-10-02T01:30:00,0,28195817,178793
OK,52,60,802,52,2014-10-02T01:35:00,0,28196550,178793
OK,52,60,802,52,2014-10-02T01:40:00,0,28196975,178793
OK,52,60,802,52,2014-10-02T01:45:00,0,28197422,178793
OK,52,60,802,52,2014-10-02T01:50:00,0,28197870,178793
OK,52,60,802,52,2014-10-02T01:55:00,0,28198318,178793
OK,52,60,802,52,2014-10-02T02:05:00,0,28198767,178793
OK,52,60,802,52,2014-10-02T02:10:00,0,28199581,178793
OK,52,60,802,52,2014-10-02T02:15:00,0,28200023,178793
OK,52,60,802,52,2014-10-02T02:20:00,0,28200466,178793
OK,52,60,802,52,2014-10-02T02:25:00,0,28200915,178793
OK,52,60,802,52,2014-10-02T02:30:00,0,28201346,178793
OK,52,60,802,52,2014-10-02T02:45:00,0,28202244,178793
OK,52,60,802,52,2014-10-02T02:50:00,0,28202686,178793
OK,52,60,802,52,2014-10-02T02:55:00,0,28203134,178793
OK,71,44,802,71,2014-10-02T03:00:00,1,28203569,178793
OK,84,37,802,84,2014-10-02T03:10:00,1,28204018,178793
OK,44,71,802,44,2014-10-02T03:25:00,1,28204467,178793
OK,44,71,802,44,2014-10-02T03:30:00,0,28204916,178793
OK,59,53,802,59,2014-10-02T03:35:00,0,28205346,178793
OK,59,53,802,59,2014-10-02T03:40:00,0,28205791,178793
OK,52,60,802,52,2014-10-02T03:45:00,1,28206174,178793
OK,52,60,802,52,2014-10-02T03:55:00,0,28207072,178793
OK,52,60,802,52,2014-10-02T04:00:00,0,28207494,178793
OK,52,60,802,52,2014-10-02T04:05:00,0,28207940,178793
OK,92,34,802,92,2014-10-02T04:10:00,1,28208372,178793
OK,92,34,802,92,2014-10-02T04:15:00,0,28208816,178793
OK,92,34,802,92,2014-10-02T04:20:00,0,28209255,178793
OK,73,43,802,73,2014-10-02T04:30:00,3,28209703,178793
OK,76,41,802,76,2014-10-02T04:35:00,2,28210575,178793
OK,86,36,802,86,2014-10-02T04:40:00,1,28211006,178793
OK,86,36,802,86,2014-10-02T04:45:00,0,28211444,178793
OK,86,36,802,86,2014-10-02T04:50:00,0,28211822,178793
OK,93,33,802,93,2014-10-02T05:00:00,0,28212271,178793
OK,93,33,802,93,2014-10-02T05:10:00,0,28213149,178793
OK,118,26,802,118,2014-10-02T05:20:00,0,28214036,178793
OK,118,26,802,118,2014-10-02T05:25:00,0,28214898,178793
OK,118,26,802,118,2014-10-02T05:30:00,0,28215324,178793
OK,88,35,802,88,2014-10-02T05:40:00,4,28215763,178793
OK,89,35,802,89,2014-10-02T05:45:00,1,28216542,178793
OK,89,35,802,89,2014-10-02T05:50:00,0,28216991,178793
OK,73,43,802,73,2014-10-02T05:55:00,6,28217438,178793
OK,84,37,802,84,2014-10-02T06:00:00,4,28217879,178793
OK,102,30,802,102,2014-10-02T06:05:00,7,28218326,178793
OK,119,26,802,119,2014-10-02T06:10:00,1,28218753,178793
OK,47,67,802,47,2014-10-02T06:15:00,2,28219195,178793
OK,63,50,802,63,2014-10-02T06:20:00,2,28219570,178793
OK,95,33,802,95,2014-10-02T06:25:00,4,28220017,178793
OK,100,31,802,100,2014-10-02T06:30:00,4,28220453,178793
OK,75,42,802,75,2014-10-02T06:40:00,1,28220900,178793
OK,75,42,802,75,2014-10-02T06:45:00,3,28221567,178793
OK,64,49,802,64,2014-10-02T07:00:00,9,28222161,178793
OK,56,56,802,56,2014-10-02T07:05:00,5,28222610,178793
OK,76,41,802,76,2014-10-02T07:10:00,5,28223043,178793
OK,90,35,802,90,2014-10-02T07:15:00,1,28223477,178793
OK,90,35,802,90,2014-10-02T07:20:00,0,28223924,178793
OK,89,35,802,89,2014-10-02T07:25:00,1,28224279,178793
OK,89,35,802,89,2014-10-02T07:30:00,1,28224728,178793
OK,86,36,802,86,2014-10-02T07:40:00,2,28225177,178793
OK,71,44,802,71,2014-10-02T07:50:00,5,28226390,178793
OK,115,27,802,115,2014-10-02T08:00:00,3,28226838,178793
OK,112,28,802,112,2014-10-02T08:05:00,4,28227702,178793
OK,113,27,802,113,2014-10-02T08:10:00,3,28228067,178793
OK,159,19,802,159,2014-10-02T08:20:00,0,28228510,178793
OK,119,26,802,119,2014-10-02T08:25:00,3,28229369,178793
OK,119,26,802,119,2014-10-02T08:30:00,3,28229726,178793
OK,102,30,802,102,2014-10-02T08:40:00,3,28230168,178793
OK,101,31,802,101,2014-10-02T08:50:00,2,28230983,178793
OK,106,29,802,106,2014-10-02T08:55:00,1,28231855,178793
OK,106,29,802,106,2014-10-02T09:00:00,7,28232200,178793
OK,116,27,802,116,2014-10-02T09:10:00,0,28232646,178793
OK,120,26,802,120,2014-10-02T09:20:00,4,28233095,178793
OK,96,32,802,96,2014-10-02T09:25:00,3,28233968,178793
OK,90,35,802,90,2014-10-02T09:30:00,1,28234303,178793
OK,81,38,802,81,2014-10-02T09:35:00,3,28234750,178793
OK,80,39,802,80,2014-10-02T09:40:00,0,28235177,178793
OK,57,55,802,57,2014-10-02T09:45:00,2,28235626,178793
OK,57,55,802,57,2014-10-02T09:50:00,0,28236070,178793
OK,65,48,802,65,2014-10-02T09:55:00,7,28236516,178793
OK,71,44,802,71,2014-10-02T10:00:00,4,28236921,178793
OK,65,48,802,65,2014-10-02T10:05:00,0,28237367,178793
OK,77,41,802,77,2014-10-02T10:10:00,10,28237815,178793
OK,76,41,802,76,2014-10-02T10:15:00,7,28238263,178793
OK,74,42,802,74,2014-10-02T10:20:00,1,28238704,178793
OK,114,27,802,114,2014-10-02T10:25:00,2,28239152,178793
OK,114,27,802,114,2014-10-02T10:30:00,2,28239583,178793
OK,97,32,802,97,2014-10-02T10:35:00,6,28240031,178793
OK,81,38,802,81,2014-10-02T10:40:00,5,28240476,178793
OK,75,42,802,75,2014-10-02T10:45:00,2,28240924,178793
OK,57,55,802,57,2014-10-02T10:50:00,1,28241360,178793
OK,94,33,802,94,2014-10-02T10:55:00,3,28241804,178793
OK,99,31,802,99,2014-10-02T11:00:00,1,28242203,178793
OK,99,31,802,99,2014-10-02T11:05:00,0,28242649,178793
OK,98,32,802,98,2014-10-02T11:15:00,3,28243098,178793
OK,84,37,802,84,2014-10-02T11:20:00,5,28243862,178793
OK,84,37,802,84,2014-10-02T11:25:00,2,28244291,178793
OK,84,37,802,84,2014-10-02T11:30:00,0,28244739,178793
OK,85,37,802,85,2014-10-02T11:35:00,3,28245188,178793
OK,98,32,802,98,2014-10-02T11:40:00,1,28245597,178793
OK,98,32,802,98,2014-10-02T11:45:00,0,28246043,178793
OK,90,35,802,90,2014-10-02T11:50:00,9,28246480,178793
OK,86,36,802,86,2014-10-02T11:55:00,5,28246929,178793
OK,110,28,802,110,2014-10-02T12:00:00,5,28247375,178793
OK,110,28,802,110,2014-10-02T12:05:00,1,28247807,178793
OK,110,28,802,110,2014-10-02T12:10:00,0,28248254,178793
OK,87,36,802,87,2014-10-02T12:15:00,8,28248702,178793
OK,83,38,802,83,2014-10-02T12:20:00,2,28249130,178793
OK,105,30,802,105,2014-10-02T12:25:00,7,28249573,178793
OK,81,38,802,81,2014-10-02T12:30:00,2,28249992,178793
OK,91,34,802,91,2014-10-02T12:35:00,10,28250390,178793
OK,63,50,802,63,2014-10-02T12:45:00,6,28251170,178793
OK,70,45,802,70,2014-10-02T13:20:00,3,28251715,178793
OK,89,35,802,89,2014-10-02T13:30:00,9,28252299,178793
OK,109,28,802,109,2014-10-02T13:35:00,2,28252741,178793
OK,109,28,802,109,2014-10-02T13:40:00,0,28253158,178793
OK,105,30,802,105,2014-10-02T13:45:00,3,28253607,178793
OK,106,29,802,106,2014-10-02T13:50:00,1,28254013,178793
OK,105,30,802,105,2014-10-02T13:55:00,6,28254333,178793
OK,104,30,802,104,2014-10-02T14:10:00,8,28254910,178793
OK,86,36,802,86,2014-10-02T14:15:00,7,28255359,178793
OK,84,37,802,84,2014-10-02T14:20:00,6,28255787,178793
OK,91,34,802,91,2014-10-02T14:25:00,4,28256236,178793
OK,102,30,802,102,2014-10-02T14:30:00,13,28256664,178793
OK,103,30,802,103,2014-10-02T14:35:00,12,28257113,178793
OK,102,30,802,102,2014-10-02T14:40:00,7,28257554,178793
OK,92,34,802,92,2014-10-02T14:45:00,8,28258002,178793
OK,88,35,802,88,2014-10-02T14:50:00,8,28258435,178793
OK,88,35,802,88,2014-10-02T14:55:00,6,28258881,178793
OK,90,35,802,90,2014-10-02T15:00:00,7,28259330,178793
OK,90,35,802,90,2014-10-02T15:05:00,5,28259777,178793
OK,108,29,802,108,2014-10-02T15:10:00,4,28260210,178793
OK,106,29,802,106,2014-10-02T15:15:00,4,28260659,178793
OK,106,29,802,106,2014-10-02T15:20:00,3,28261099,178793
OK,85,37,802,85,2014-10-02T15:25:00,12,28261481,178793
OK,111,28,802,111,2014-10-02T15:30:00,4,28261911,178793
OK,126,25,802,126,2014-10-02T15:35:00,4,28262358,178793
OK,155,20,802,155,2014-10-02T15:40:00,0,28262804,178793
OK,75,42,802,75,2014-10-02T15:45:00,9,28263242,178793
OK,71,44,802,71,2014-10-02T15:50:00,4,28263683,178793
OK,71,44,802,71,2014-10-02T15:55:00,0,28264085,178793
OK,71,44,802,71,2014-10-02T16:00:00,0,28264534,178793
OK,94,33,802,94,2014-10-02T16:05:00,3,28264972,178793
OK,78,40,802,78,2014-10-02T16:10:00,10,28265412,178793
OK,68,46,802,68,2014-10-02T16:15:00,4,28265808,178793
OK,114,27,802,114,2014-10-02T16:20:00,2,28266257,178793
OK,57,55,802,57,2014-10-02T16:25:00,1,28266706,178793
OK,93,33,802,93,2014-10-02T16:30:00,2,28267029,178793
OK,93,33,802,93,2014-10-02T16:35:00,2,28267478,178793
OK,93,33,802,93,2014-10-02T16:40:00,0,28267927,178793
OK,110,28,802,110,2014-10-02T16:45:00,0,28268369,178793
OK,110,28,802,110,2014-10-02T16:50:00,0,28268818,178793
OK,98,32,802,98,2014-10-02T16:55:00,3,28269267,178793
OK,101,31,802,101,2014-10-02T17:00:00,3,28269702,178793
OK,85,37,802,85,2014-10-02T17:05:00,8,28270151,178793
OK,85,37,802,85,2014-10-02T17:10:00,6,28270585,178793
OK,90,35,802,90,2014-10-02T17:15:00,0,28271034,178793
OK,74,42,802,74,2014-10-02T17:20:00,1,28271464,178793
OK,74,42,802,74,2014-10-02T17:25:00,0,28271912,178793
OK,87,36,802,87,2014-10-02T17:30:00,2,28272348,178793
OK,56,56,802,56,2014-10-02T17:35:00,0,28272789,178793
OK,56,56,802,56,2014-10-02T17:40:00,0,28273237,178793
OK,85,37,802,85,2014-10-02T17:45:00,2,28273683,178793
OK,91,34,802,91,2014-10-02T17:55:00,1,28274132,178793
OK,91,34,802,91,2014-10-02T18:00:00,0,28274906,178793
OK,81,38,802,81,2014-10-02T18:05:00,0,28275345,178793
OK,81,38,802,81,2014-10-02T18:10:00,0,28275790,178793
OK,81,38,802,81,2014-10-02T18:15:00,0,28276236,178793
OK,78,40,802,78,2014-10-02T18:20:00,1,28276632,178793
OK,78,40,802,78,2014-10-02T18:30:00,0,28277081,178793
OK,82,38,802,82,2014-10-02T18:40:00,0,28277530,178793
OK,82,38,802,82,2014-10-02T18:45:00,0,28278327,178793
OK,98,32,802,98,2014-10-02T19:00:00,0,28278776,178793
OK,98,32,802,98,2014-10-02T19:05:00,0,28279225,178793
OK,98,32,802,98,2014-10-02T19:10:00,0,28279670,178793